User: anonymous   Login
Location: Brabourne
(51.1333°N, 1.0000°E)
Time: 02:09:55
(UTC+00:00)
Language:

GP-B - Orbit

View from above orbital plane
View from above orbital plane
View from above satellite
View from above satellite

Ground track
Ground track

The orbit data is extracted from the following two-line orbital elements,

1 28230U 04014A   21259.51121399  .00000153  00000-0  18595-4 0  9995
2 28230  89.8081  88.0706 0002970  76.2591 283.8963 14.78835282395664
Epoch (UTC): 16 September 2021 12:16:08
Eccentricity: 0.0002970
inclination: 89.8081°
perigee height: 631 km
apogee height: 635 km
right ascension of ascending node: 88.0706°
argument of perigee: 76.2591°
revolutions per day: 14.78835282
mean anomaly at epoch: 283.8963°
orbit number at epoch: 39566

The dashed part of the orbit path shows where the satellite is in the earth's shadow,  

DLR